CZ-3B R/B (43709 NORAD) Tracking and Keplerian Element Data

This shows tracking and keplerian element data for the satellite.

Feedback or suggestion? Click here.




ElementValue
Catalog43709
NameCZ-3B R/B
Epoch Orbit122
Epoch Day350.86725879
Epoch Year2018
RAAN261.3811
Inclination54.9535
Eccentricity0.5841623
Argument of Perigee179.3801
Mean Anonmoly182.0332
Mean Motion4.36672531
Decay Rate0.00028296
L11 43709U 18093D 18350.86725879 .00028296 21609-6 75653-3 0 9993
L22 43709 54.9535 261.3811 5841623 179.3801 182.0332 4.36672531 1227



Live tracking and technical data element details for CZ-3B R/B (NORAD 43709). CZ-3B R/B can be tracked NOW for your location showing map with azimuth and elevation plus other details from your city location.







IsCatalogInMostPopularTable: catalog: 43709, numindb: 295
Update: records affected: 1



GetName: 43709 CZ-3B R/B

Hit Count: updated at: Sat, 10 Jun 2023 23:55:51 GMT